Torna al catalogo

TIANPING-3A02

AttivoScienzaLEO
NORAD 63432·PAYLOAD·🇨🇳 China

Lanciato Apr 3, 2025 da Taiyuan Satellite Launch Center

Loading…

Prossimi Passaggi (prossime 24 ore)

TLE

AggiornatoSource: Space-Track

Epoca: Sep 13, 2026, 22:59 UTC

1 63432U 25068A   26256.95781860  .00002254  00000-0  17624-3 0  9990
2 63432  43.0005 297.4496 0236088  56.6888 305.6318 14.84727243 78576

Traccia TIANPING-3A02 in tempo reale con AllMySat

Download on the App Store